SITRO-AIS 7 (FARTUSHNIY)

Last updated on Tue Jul 01 2025 00:03:44 GMT+0000 (Coordinated Universal Time)

1 57194U 23091AE 25181.56803531 .00006227 00000+0 29300-3 0 9992 2 57194 97.5564 238.4971 0012234 254.4836 105.5048 15.19857946110765
UTC large
Height (km)
Speed (km/s)
/
Latitude / Longitude
Inclination (degrees)
Orbital Period (minutes)
Azimuth
Elevation
Range (km)
Doppler Factor

Next 0 passes for location: London (51.5072 / 0.1276)

Sorry there are no passes over London.